owner,sensor,date,latitude,longitude,vertical_datum,sea_water_temperature,qcFlag 
TABS,ioos:station:wmo:42051:1,2010-10-01T00:00:00Z,29.6350,-93.6417,-2.0,27.2,11111222 
TABS,ioos:station:wmo:42051:1,2010-10-01T00:30:00Z,29.6350,-93.6417,-2.0,27.2,11111222 
TABS,ioos:station:wmo:42051:1,2010-10-01T01:00:00Z,29.6350,-93.6417,-2.0,27.2,11111222 
TABS,ioos:station:wmo:42051:1,2010-10-01T01:30:00Z,29.6350,-93.6417,-2.0,27.0,11111222 
TABS,ioos:station:wmo:42051:1,2010-10-01T02:00:00Z,29.6350,-93.6417,-2.0,27.0,11111222 
TABS,ioos:station:wmo:42051:1,2010-10-01T02:30:00Z,29.6350,-93.6417,-2.0,27.0,11111222 
TABS,ioos:station:wmo:42051:1,2010-10-01T03:00:00Z,29.6350,-93.6417,-2.0,27.0,11111222 
TABS,ioos:station:wmo:42051:1,2010-10-01T03:30:00Z,29.6350,-93.6417,-2.0,27.0,11111222 
TABS,ioos:station:wmo:42051:1,2010-10-01T04:00:00Z,29.6350,-93.6417,-2.0,27.0,11111222 
TABS,ioos:station:wmo:42051:1,2010-10-01T04:30:00Z,29.6350,-93.6417,-2.0,27.0,11111222 
TABS,ioos:station:wmo:42051:1,2010-10-01T05:00:00Z,29.6350,-93.6417,-2.0,27.0,11111222 
TABS,ioos:station:wmo:42051:1,2010-10-01T05:30:00Z,29.6350,-93.6417,-2.0,27.0,11111222 
TABS,ioos:station:wmo:42051:1,2010-10-01T06:00:00Z,29.6350,-93.6417,-2.0,27.0,11111222 
TABS,ioos:station:wmo:42051:1,2010-10-01T06:30:00Z,29.6350,-93.6417,-2.0,27.0,11111222 
TABS,ioos:station:wmo:42051:1,2010-10-01T07:00:00Z,29.6350,-93.6417,-2.0,26.8,11111222 
TABS,ioos:station:wmo:42051:1,2010-10-01T07:30:00Z,29.6350,-93.6417,-2.0,27.0,11111222 
TABS,ioos:station:wmo:42051:1,2010-10-01T08:00:00Z,29.6350,-93.6417,-2.0,27.0,11111222 
TABS,ioos:station:wmo:42051:1,2010-10-01T08:30:00Z,29.6350,-93.6417,-2.0,27.0,11111222 
TABS,ioos:station:wmo:42051:1,2010-10-01T09:00:00Z,29.6350,-93.6417,-2.0,27.0,11111222 
TABS,ioos:station:wmo:42051:1,2010-10-01T09:30:00Z,29.6350,-93.6417,-2.0,27.0,11111222 
TABS,ioos:station:wmo:42051:1,2010-10-01T10:00:00Z,29.6350,-93.6417,-2.0,27.0,11111222 
TABS,ioos:station:wmo:42051:1,2010-10-01T10:30:00Z,29.6350,-93.6417,-2.0,26.8,11111222 
TABS,ioos:station:wmo:42051:1,2010-10-01T11:00:00Z,29.6350,-93.6417,-2.0,26.8,11111222 
TABS,ioos:station:wmo:42051:1,2010-10-01T11:30:00Z,29.6350,-93.6417,-2.0,26.8,11111222 
TABS,ioos:station:wmo:42051:1,2010-10-01T12:00:00Z,29.6350,-93.6417,-2.0,26.8,11111222 
TABS,ioos:station:wmo:42051:1,2010-10-01T12:30:00Z,29.6350,-93.6417,-2.0,27.0,11111222 
TABS,ioos:station:wmo:42051:1,2010-10-01T13:00:00Z,29.6350,-93.6417,-2.0,26.74,2 
TABS,ioos:station:wmo:42051:1,2010-10-01T13:30:00Z,29.6350,-93.6417,-2.0,26.75,2 
TABS,ioos:station:wmo:42051:1,2010-10-01T14:00:00Z,29.6350,-93.6417,-2.0,26.74,2 
TABS,ioos:station:wmo:42051:1,2010-10-01T14:30:00Z,29.6350,-93.6417,-2.0,26.74,2 
TABS,ioos:station:wmo:42051:1,2010-10-01T15:00:00Z,29.6350,-93.6417,-2.0,26.78,2 
TABS,ioos:station:wmo:42051:1,2010-10-01T15:30:00Z,29.6350,-93.6417,-2.0,26.81,2 
TABS,ioos:station:wmo:42051:1,2010-10-01T16:00:00Z,29.6350,-93.6417,-2.0,26.87,2 
TABS,ioos:station:wmo:42051:1,2010-10-01T16:30:00Z,29.6350,-93.6417,-2.0,26.92,2 
TABS,ioos:station:wmo:42051:1,2010-10-01T17:00:00Z,29.6350,-93.6417,-2.0,27.0,2 
TABS,ioos:station:wmo:42051:1,2010-10-01T17:30:00Z,29.6350,-93.6417,-2.0,27.06,2 
TABS,ioos:station:wmo:42051:1,2010-10-01T18:00:00Z,29.6350,-93.6417,-2.0,27.13,2 
TABS,ioos:station:wmo:42051:1,2010-10-01T18:30:00Z,29.6350,-93.6417,-2.0,27.14,2 
TABS,ioos:station:wmo:42051:1,2010-10-01T19:00:00Z,29.6350,-93.6417,-2.0,27.21,2 
TABS,ioos:station:wmo:42051:1,2010-10-01T19:30:00Z,29.6350,-93.6417,-2.0,27.24,2 
TABS,ioos:station:wmo:42051:1,2010-10-01T20:00:00Z,29.6350,-93.6417,-2.0,27.27,2 
TABS,ioos:station:wmo:42051:1,2010-10-01T20:30:00Z,29.6350,-93.6417,-2.0,27.33,2 
TABS,ioos:station:wmo:42051:1,2010-10-01T21:00:00Z,29.6350,-93.6417,-2.0,27.35,2 
TABS,ioos:station:wmo:42051:1,2010-10-01T21:30:00Z,29.6350,-93.6417,-2.0,27.47,2 
TABS,ioos:station:wmo:42051:1,2010-10-01T22:00:00Z,29.6350,-93.6417,-2.0,27.42,2 
TABS,ioos:station:wmo:42051:1,2010-10-01T23:30:00Z,29.6350,-93.6417,-2.0,27.18,2 
TABS,ioos:station:wmo:42051:1,2010-10-02T00:00:00Z,29.6350,-93.6417,-2.0,27.08,2 
TABS,ioos:station:wmo:42051:1,2010-10-02T00:30:00Z,29.6350,-93.6417,-2.0,27.07,2 
TABS,ioos:station:wmo:42051:1,2010-10-02T01:00:00Z,29.6350,-93.6417,-2.0,27.01,2 
TABS,ioos:station:wmo:42051:1,2010-10-02T01:30:00Z,29.6350,-93.6417,-2.0,26.97,2 
TABS,ioos:station:wmo:42051:1,2010-10-02T02:00:00Z,29.6350,-93.6417,-2.0,26.93,2 
TABS,ioos:station:wmo:42051:1,2010-10-02T02:30:00Z,29.6350,-93.6417,-2.0,26.93,2 
TABS,ioos:station:wmo:42051:1,2010-10-02T03:00:00Z,29.6350,-93.6417,-2.0,26.9,2 
TABS,ioos:station:wmo:42051:1,2010-10-02T03:30:00Z,29.6350,-93.6417,-2.0,26.88,2 
TABS,ioos:station:wmo:42051:1,2010-10-02T04:00:00Z,29.6350,-93.6417,-2.0,26.84,2 
TABS,ioos:station:wmo:42051:1,2010-10-02T04:30:00Z,29.6350,-93.6417,-2.0,26.81,11111222 
TABS,ioos:station:wmo:42051:1,2010-10-02T05:00:00Z,29.6350,-93.6417,-2.0,26.77,11111222 
TABS,ioos:station:wmo:42051:1,2010-10-02T05:30:00Z,29.6350,-93.6417,-2.0,26.75,11111222 
TABS,ioos:station:wmo:42051:1,2010-10-02T06:00:00Z,29.6350,-93.6417,-2.0,26.73,11111222 
TABS,ioos:station:wmo:42051:1,2010-10-02T06:30:00Z,29.6350,-93.6417,-2.0,26.7,11111222 
TABS,ioos:station:wmo:42051:1,2010-10-02T07:00:00Z,29.6350,-93.6417,-2.0,26.66,11111222 
TABS,ioos:station:wmo:42051:1,2010-10-02T07:30:00Z,29.6350,-93.6417,-2.0,26.64,11111222 
TABS,ioos:station:wmo:42051:1,2010-10-02T08:00:00Z,29.6350,-93.6417,-2.0,26.63,11111222 
TABS,ioos:station:wmo:42051:1,2010-10-02T08:30:00Z,29.6350,-93.6417,-2.0,26.62,11111222 
TABS,ioos:station:wmo:42051:1,2010-10-02T09:00:00Z,29.6350,-93.6417,-2.0,26.64,11111222 
TABS,ioos:station:wmo:42051:1,2010-10-02T09:30:00Z,29.6350,-93.6417,-2.0,26.64,11111222 
TABS,ioos:station:wmo:42051:1,2010-10-02T10:00:00Z,29.6350,-93.6417,-2.0,26.64,11111222 
TABS,ioos:station:wmo:42051:1,2010-10-02T10:30:00Z,29.6350,-93.6417,-2.0,26.62,11111222 
TABS,ioos:station:wmo:42051:1,2010-10-02T11:00:00Z,29.6350,-93.6417,-2.0,26.59,11111222 
TABS,ioos:station:wmo:42051:1,2010-10-02T11:30:00Z,29.6350,-93.6417,-2.0,26.57,11111222 
TABS,ioos:station:wmo:42051:1,2010-10-02T12:00:00Z,29.6350,-93.6417,-2.0,26.54,11111222 
TABS,ioos:station:wmo:42051:1,2010-10-02T12:30:00Z,29.6350,-93.6417,-2.0,26.5,11111222 
TABS,ioos:station:wmo:42051:1,2010-10-02T13:00:00Z,29.6350,-93.6417,-2.0,26.47,11111222 
TABS,ioos:station:wmo:42051:1,2010-10-02T13:30:00Z,29.6350,-93.6417,-2.0,26.47,11111222 
TABS,ioos:station:wmo:42051:1,2010-10-02T14:00:00Z,29.6350,-93.6417,-2.0,26.47,11111222 
TABS,ioos:station:wmo:42051:1,2010-10-02T14:30:00Z,29.6350,-93.6417,-2.0,26.47,11111222 
TABS,ioos:station:wmo:42051:1,2010-10-02T15:00:00Z,29.6350,-93.6417,-2.0,26.48,11111222 
TABS,ioos:station:wmo:42051:1,2010-10-02T15:30:00Z,29.6350,-93.6417,-2.0,26.45,11111222 
TABS,ioos:station:wmo:42051:1,2010-10-02T16:00:00Z,29.6350,-93.6417,-2.0,26.46,11111222 
TABS,ioos:station:wmo:42051:1,2010-10-02T16:30:00Z,29.6350,-93.6417,-2.0,26.44,11111222 
TABS,ioos:station:wmo:42051:1,2010-10-02T17:00:00Z,29.6350,-93.6417,-2.0,26.41,11111222 
TABS,ioos:station:wmo:42051:1,2010-10-02T17:30:00Z,29.6350,-93.6417,-2.0,26.43,11111222 
TABS,ioos:station:wmo:42051:1,2010-10-02T18:00:00Z,29.6350,-93.6417,-2.0,26.44,11111222 
TABS,ioos:station:wmo:42051:1,2010-10-02T18:30:00Z,29.6350,-93.6417,-2.0,26.47,11111222 
TABS,ioos:station:wmo:42051:1,2010-10-02T19:00:00Z,29.6350,-93.6417,-2.0,26.49,11111222 
TABS,ioos:station:wmo:42051:1,2010-10-02T19:30:00Z,29.6350,-93.6417,-2.0,26.52,11111222 
TABS,ioos:station:wmo:42051:1,2010-10-02T20:00:00Z,29.6350,-93.6417,-2.0,26.56,11111222 
TABS,ioos:station:wmo:42051:1,2010-10-02T20:30:00Z,29.6350,-93.6417,-2.0,26.58,11111222 
TABS,ioos:station:wmo:42051:1,2010-10-02T21:00:00Z,29.6350,-93.6417,-2.0,26.58,11111222 
TABS,ioos:station:wmo:42051:1,2010-10-02T21:30:00Z,29.6350,-93.6417,-2.0,26.55,11111222 
TABS,ioos:station:wmo:42051:1,2010-10-02T22:00:00Z,29.6350,-93.6417,-2.0,26.51,11111222 
TABS,ioos:station:wmo:42051:1,2010-10-02T23:30:00Z,29.6350,-93.6417,-2.0,26.38,2 
TABS,ioos:station:wmo:42051:1,2010-10-03T00:00:00Z,29.6350,-93.6417,-2.0,26.35,2 
TABS,ioos:station:wmo:42051:1,2010-10-03T00:30:00Z,29.6350,-93.6417,-2.0,26.31,2 
TABS,ioos:station:wmo:42051:1,2010-10-03T01:00:00Z,29.6350,-93.6417,-2.0,26.29,2 
TABS,ioos:station:wmo:42051:1,2010-10-03T01:30:00Z,29.6350,-93.6417,-2.0,26.27,2 
TABS,ioos:station:wmo:42051:1,2010-10-03T02:00:00Z,29.6350,-93.6417,-2.0,26.25,2 
TABS,ioos:station:wmo:42051:1,2010-10-03T02:30:00Z,29.6350,-93.6417,-2.0,26.23,2 
TABS,ioos:station:wmo:42051:1,2010-10-03T03:00:00Z,29.6350,-93.6417,-2.0,26.21,2 
TABS,ioos:station:wmo:42051:1,2010-10-03T03:30:00Z,29.6350,-93.6417,-2.0,26.17,2 
TABS,ioos:station:wmo:42051:1,2010-10-03T04:00:00Z,29.6350,-93.6417,-2.0,26.16,2 
TABS,ioos:station:wmo:42051:1,2010-10-03T04:30:00Z,29.6350,-93.6417,-2.0,26.15,11111222 
TABS,ioos:station:wmo:42051:1,2010-10-03T05:00:00Z,29.6350,-93.6417,-2.0,26.13,11111222 
TABS,ioos:station:wmo:42051:1,2010-10-03T05:30:00Z,29.6350,-93.6417,-2.0,26.1,11111222 
TABS,ioos:station:wmo:42051:1,2010-10-03T06:00:00Z,29.6350,-93.6417,-2.0,26.08,11111222 
TABS,ioos:station:wmo:42051:1,2010-10-03T06:30:00Z,29.6350,-93.6417,-2.0,26.05,11111222 
TABS,ioos:station:wmo:42051:1,2010-10-03T07:00:00Z,29.6350,-93.6417,-2.0,26.03,11111222 
TABS,ioos:station:wmo:42051:1,2010-10-03T07:30:00Z,29.6350,-93.6417,-2.0,26.02,11111222 
TABS,ioos:station:wmo:42051:1,2010-10-03T08:00:00Z,29.6350,-93.6417,-2.0,26.02,11111222 
TABS,ioos:station:wmo:42051:1,2010-10-03T08:30:00Z,29.6350,-93.6417,-2.0,26.0,11111222 
TABS,ioos:station:wmo:42051:1,2010-10-03T09:00:00Z,29.6350,-93.6417,-2.0,25.98,11111222 
TABS,ioos:station:wmo:42051:1,2010-10-03T09:30:00Z,29.6350,-93.6417,-2.0,25.94,11111222 
TABS,ioos:station:wmo:42051:1,2010-10-03T10:00:00Z,29.6350,-93.6417,-2.0,25.94,11111222 
TABS,ioos:station:wmo:42051:1,2010-10-03T10:30:00Z,29.6350,-93.6417,-2.0,25.94,11111222 
TABS,ioos:station:wmo:42051:1,2010-10-03T11:00:00Z,29.6350,-93.6417,-2.0,25.9,11111222 
TABS,ioos:station:wmo:42051:1,2010-10-03T11:30:00Z,29.6350,-93.6417,-2.0,25.87,11111222 
TABS,ioos:station:wmo:42051:1,2010-10-03T12:00:00Z,29.6350,-93.6417,-2.0,25.79,11111222 
TABS,ioos:station:wmo:42051:1,2010-10-03T12:30:00Z,29.6350,-93.6417,-2.0,25.77,11111222 
TABS,ioos:station:wmo:42051:1,2010-10-03T13:00:00Z,29.6350,-93.6417,-2.0,25.76,11111222 
TABS,ioos:station:wmo:42051:1,2010-10-03T13:30:00Z,29.6350,-93.6417,-2.0,25.76,11111222 
TABS,ioos:station:wmo:42051:1,2010-10-03T14:00:00Z,29.6350,-93.6417,-2.0,25.74,11111222 
TABS,ioos:station:wmo:42051:1,2010-10-03T14:30:00Z,29.6350,-93.6417,-2.0,25.73,11111222 
TABS,ioos:station:wmo:42051:1,2010-10-03T15:00:00Z,29.6350,-93.6417,-2.0,25.71,11111222 
TABS,ioos:station:wmo:42051:1,2010-10-03T15:30:00Z,29.6350,-93.6417,-2.0,25.68,11111222 
TABS,ioos:station:wmo:42051:1,2010-10-03T16:00:00Z,29.6350,-93.6417,-2.0,25.67,11111222 
TABS,ioos:station:wmo:42051:1,2010-10-03T16:30:00Z,29.6350,-93.6417,-2.0,25.67,11111222 
TABS,ioos:station:wmo:42051:1,2010-10-03T17:00:00Z,29.6350,-93.6417,-2.0,25.69,11111222 
TABS,ioos:station:wmo:42051:1,2010-10-03T17:30:00Z,29.6350,-93.6417,-2.0,25.72,11111222 
TABS,ioos:station:wmo:42051:1,2010-10-03T18:00:00Z,29.6350,-93.6417,-2.0,25.72,11111222 
TABS,ioos:station:wmo:42051:1,2010-10-03T18:30:00Z,29.6350,-93.6417,-2.0,25.73,2 
TABS,ioos:station:wmo:42051:1,2010-10-03T19:00:00Z,29.6350,-93.6417,-2.0,25.74,2 
TABS,ioos:station:wmo:42051:1,2010-10-03T19:30:00Z,29.6350,-93.6417,-2.0,25.76,2 
TABS,ioos:station:wmo:42051:1,2010-10-03T20:00:00Z,29.6350,-93.6417,-2.0,25.78,2 
TABS,ioos:station:wmo:42051:1,2010-10-03T20:30:00Z,29.6350,-93.6417,-2.0,25.8,2 
TABS,ioos:station:wmo:42051:1,2010-10-03T21:00:00Z,29.6350,-93.6417,-2.0,25.81,2 
TABS,ioos:station:wmo:42051:1,2010-10-03T21:30:00Z,29.6350,-93.6417,-2.0,25.8,2 
TABS,ioos:station:wmo:42051:1,2010-10-03T22:00:00Z,29.6350,-93.6417,-2.0,25.79,2 
TABS,ioos:station:wmo:42051:1,2010-10-03T22:30:00Z,29.6350,-93.6417,-2.0,25.76,2 
TABS,ioos:station:wmo:42051:1,2010-10-04T03:00:00Z,29.6350,-93.6417,-2.0,25.51,2 
TABS,ioos:station:wmo:42051:1,2010-10-04T03:30:00Z,29.6350,-93.6417,-2.0,25.47,2 
TABS,ioos:station:wmo:42051:1,2010-10-04T04:00:00Z,29.6350,-93.6417,-2.0,25.45,2 
TABS,ioos:station:wmo:42051:1,2010-10-04T04:30:00Z,29.6350,-93.6417,-2.0,25.43,2 
TABS,ioos:station:wmo:42051:1,2010-10-04T05:00:00Z,29.6350,-93.6417,-2.0,25.42,2 
TABS,ioos:station:wmo:42051:1,2010-10-04T05:30:00Z,29.6350,-93.6417,-2.0,25.39,2 
TABS,ioos:station:wmo:42051:1,2010-10-04T06:00:00Z,29.6350,-93.6417,-2.0,25.36,2 
TABS,ioos:station:wmo:42051:1,2010-10-04T06:30:00Z,29.6350,-93.6417,-2.0,25.34,2 
TABS,ioos:station:wmo:42051:1,2010-10-04T07:00:00Z,29.6350,-93.6417,-2.0,25.2,11111222 
TABS,ioos:station:wmo:42051:1,2010-10-04T07:30:00Z,29.6350,-93.6417,-2.0,25.2,11111222 
TABS,ioos:station:wmo:42051:1,2010-10-04T08:00:00Z,29.6350,-93.6417,-2.0,25.2,11111222 
TABS,ioos:station:wmo:42051:1,2010-10-04T08:30:00Z,29.6350,-93.6417,-2.0,25.2,11111222 
TABS,ioos:station:wmo:42051:1,2010-10-04T09:00:00Z,29.6350,-93.6417,-2.0,25.2,11111222 
TABS,ioos:station:wmo:42051:1,2010-10-04T09:30:00Z,29.6350,-93.6417,-2.0,25.2,11111222 
TABS,ioos:station:wmo:42051:1,2010-10-04T10:00:00Z,29.6350,-93.6417,-2.0,25.2,11111222 
TABS,ioos:station:wmo:42051:1,2010-10-04T10:30:00Z,29.6350,-93.6417,-2.0,25.0,11111222 
TABS,ioos:station:wmo:42051:1,2010-10-04T11:00:00Z,29.6350,-93.6417,-2.0,25.0,11111222 
TABS,ioos:station:wmo:42051:1,2010-10-04T11:30:00Z,29.6350,-93.6417,-2.0,25.0,11111222 
TABS,ioos:station:wmo:42051:1,2010-10-04T12:00:00Z,29.6350,-93.6417,-2.0,25.0,11111222 
TABS,ioos:station:wmo:42051:1,2010-10-04T12:30:00Z,29.6350,-93.6417,-2.0,25.0,11111222 
TABS,ioos:station:wmo:42051:1,2010-10-04T13:00:00Z,29.6350,-93.6417,-2.0,25.0,11111222 
TABS,ioos:station:wmo:42051:1,2010-10-04T13:30:00Z,29.6350,-93.6417,-2.0,38.2,11133222 
TABS,ioos:station:wmo:42051:1,2010-10-04T14:00:00Z,29.6350,-93.6417,-2.0,24.92,2 
TABS,ioos:station:wmo:42051:1,2010-10-04T14:30:00Z,29.6350,-93.6417,-2.0,24.89,2 
TABS,ioos:station:wmo:42051:1,2010-10-04T15:00:00Z,29.6350,-93.6417,-2.0,24.88,2 
TABS,ioos:station:wmo:42051:1,2010-10-04T15:30:00Z,29.6350,-93.6417,-2.0,24.86,2 
TABS,ioos:station:wmo:42051:1,2010-10-04T16:00:00Z,29.6350,-93.6417,-2.0,24.87,2 
TABS,ioos:station:wmo:42051:1,2010-10-04T16:30:00Z,29.6350,-93.6417,-2.0,24.9,2 
TABS,ioos:station:wmo:42051:1,2010-10-04T17:00:00Z,29.6350,-93.6417,-2.0,24.91,2 
TABS,ioos:station:wmo:42051:1,2010-10-04T17:30:00Z,29.6350,-93.6417,-2.0,24.92,2 
TABS,ioos:station:wmo:42051:1,2010-10-04T18:00:00Z,29.6350,-93.6417,-2.0,24.94,2 
TABS,ioos:station:wmo:42051:1,2010-10-04T18:30:00Z,29.6350,-93.6417,-2.0,24.97,2 
TABS,ioos:station:wmo:42051:1,2010-10-04T19:00:00Z,29.6350,-93.6417,-2.0,25.0,2 
TABS,ioos:station:wmo:42051:1,2010-10-04T19:30:00Z,29.6350,-93.6417,-2.0,25.03,2 
TABS,ioos:station:wmo:42051:1,2010-10-04T20:00:00Z,29.6350,-93.6417,-2.0,25.04,2 
TABS,ioos:station:wmo:42051:1,2010-10-04T20:30:00Z,29.6350,-93.6417,-2.0,25.07,2 
TABS,ioos:station:wmo:42051:1,2010-10-04T21:00:00Z,29.6350,-93.6417,-2.0,25.07,2 
TABS,ioos:station:wmo:42051:1,2010-10-04T21:30:00Z,29.6350,-93.6417,-2.0,25.07,2 
TABS,ioos:station:wmo:42051:1,2010-10-04T22:00:00Z,29.6350,-93.6417,-2.0,25.07,2 
TABS,ioos:station:wmo:42051:1,2010-10-04T22:30:00Z,29.6350,-93.6417,-2.0,25.04,2 
TABS,ioos:station:wmo:42051:1,2010-10-04T23:00:00Z,29.6350,-93.6417,-2.0,25.01,2 
TABS,ioos:station:wmo:42051:1,2010-10-04T23:30:00Z,29.6350,-93.6417,-2.0,24.97,2 
TABS,ioos:station:wmo:42051:1,2010-10-05T00:00:00Z,29.6350,-93.6417,-2.0,24.95,2 
TABS,ioos:station:wmo:42051:1,2010-10-05T00:30:00Z,29.6350,-93.6417,-2.0,24.92,2 
TABS,ioos:station:wmo:42051:1,2010-10-05T01:00:00Z,29.6350,-93.6417,-2.0,24.91,2 
TABS,ioos:station:wmo:42051:1,2010-10-05T01:30:00Z,29.6350,-93.6417,-2.0,24.87,2 
TABS,ioos:station:wmo:42051:1,2010-10-05T02:00:00Z,29.6350,-93.6417,-2.0,24.83,2 
TABS,ioos:station:wmo:42051:1,2010-10-05T02:30:00Z,29.6350,-93.6417,-2.0,24.8,2 
TABS,ioos:station:wmo:42051:1,2010-10-05T03:00:00Z,29.6350,-93.6417,-2.0,24.8,11111222 
TABS,ioos:station:wmo:42051:1,2010-10-05T03:30:00Z,29.6350,-93.6417,-2.0,24.79,11111222 
TABS,ioos:station:wmo:42051:1,2010-10-05T04:00:00Z,29.6350,-93.6417,-2.0,24.77,11111222 
TABS,ioos:station:wmo:42051:1,2010-10-05T04:30:00Z,29.6350,-93.6417,-2.0,24.74,11111222 
TABS,ioos:station:wmo:42051:1,2010-10-05T05:00:00Z,29.6350,-93.6417,-2.0,24.72,11111222 
TABS,ioos:station:wmo:42051:1,2010-10-05T05:30:00Z,29.6350,-93.6417,-2.0,24.69,11111222 
TABS,ioos:station:wmo:42051:1,2010-10-05T06:00:00Z,29.6350,-93.6417,-2.0,24.67,11111222 
TABS,ioos:station:wmo:42051:1,2010-10-05T06:30:00Z,29.6350,-93.6417,-2.0,24.64,11111222 
TABS,ioos:station:wmo:42051:1,2010-10-05T07:00:00Z,29.6350,-93.6417,-2.0,24.61,11111222 
TABS,ioos:station:wmo:42051:1,2010-10-05T07:30:00Z,29.6350,-93.6417,-2.0,24.57,11111222 
TABS,ioos:station:wmo:42051:1,2010-10-05T08:00:00Z,29.6350,-93.6417,-2.0,24.53,11111222 
TABS,ioos:station:wmo:42051:1,2010-10-05T08:30:00Z,29.6350,-93.6417,-2.0,24.52,11111222 
TABS,ioos:station:wmo:42051:1,2010-10-05T09:00:00Z,29.6350,-93.6417,-2.0,24.47,11111222 
TABS,ioos:station:wmo:42051:1,2010-10-05T09:30:00Z,29.6350,-93.6417,-2.0,24.44,11111222 
TABS,ioos:station:wmo:42051:1,2010-10-05T10:00:00Z,29.6350,-93.6417,-2.0,24.38,11111222 
TABS,ioos:station:wmo:42051:1,2010-10-05T10:30:00Z,29.6350,-93.6417,-2.0,24.34,11111222 
TABS,ioos:station:wmo:42051:1,2010-10-05T11:00:00Z,29.6350,-93.6417,-2.0,24.32,11111222 
TABS,ioos:station:wmo:42051:1,2010-10-05T11:30:00Z,29.6350,-93.6417,-2.0,24.31,11111222 
TABS,ioos:station:wmo:42051:1,2010-10-05T12:00:00Z,29.6350,-93.6417,-2.0,24.27,11111222 
TABS,ioos:station:wmo:42051:1,2010-10-05T12:30:00Z,29.6350,-93.6417,-2.0,24.25,11111222 
TABS,ioos:station:wmo:42051:1,2010-10-05T13:00:00Z,29.6350,-93.6417,-2.0,24.2,11111222 
TABS,ioos:station:wmo:42051:1,2010-10-05T13:30:00Z,29.6350,-93.6417,-2.0,24.21,11111222 
TABS,ioos:station:wmo:42051:1,2010-10-05T14:00:00Z,29.6350,-93.6417,-2.0,24.19,11111222 
TABS,ioos:station:wmo:42051:1,2010-10-05T14:30:00Z,29.6350,-93.6417,-2.0,24.2,11111222 
TABS,ioos:station:wmo:42051:1,2010-10-05T15:00:00Z,29.6350,-93.6417,-2.0,24.18,11111222 
TABS,ioos:station:wmo:42051:1,2010-10-05T15:30:00Z,29.6350,-93.6417,-2.0,24.2,11111222 
TABS,ioos:station:wmo:42051:1,2010-10-05T16:00:00Z,29.6350,-93.6417,-2.0,24.2,11111222 
TABS,ioos:station:wmo:42051:1,2010-10-05T16:30:00Z,29.6350,-93.6417,-2.0,24.21,11111222 
TABS,ioos:station:wmo:42051:1,2010-10-05T17:00:00Z,29.6350,-93.6417,-2.0,24.22,11111222 
TABS,ioos:station:wmo:42051:1,2010-10-05T17:30:00Z,29.6350,-93.6417,-2.0,24.27,11111222 
TABS,ioos:station:wmo:42051:1,2010-10-05T18:00:00Z,29.6350,-93.6417,-2.0,24.24,11111222 
TABS,ioos:station:wmo:42051:1,2010-10-05T18:30:00Z,29.6350,-93.6417,-2.0,24.23,11111222 
TABS,ioos:station:wmo:42051:1,2010-10-05T19:00:00Z,29.6350,-93.6417,-2.0,24.23,11111222 
TABS,ioos:station:wmo:42051:1,2010-10-05T19:30:00Z,29.6350,-93.6417,-2.0,24.21,11111222 
TABS,ioos:station:wmo:42051:1,2010-10-05T20:00:00Z,29.6350,-93.6417,-2.0,24.23,11111222 
TABS,ioos:station:wmo:42051:1,2010-10-05T20:30:00Z,29.6350,-93.6417,-2.0,24.2,11111222 
TABS,ioos:station:wmo:42051:1,2010-10-05T21:00:00Z,29.6350,-93.6417,-2.0,24.23,11111222 
TABS,ioos:station:wmo:42051:1,2010-10-05T21:30:00Z,29.6350,-93.6417,-2.0,24.24,11111222 
TABS,ioos:station:wmo:42051:1,2010-10-05T22:00:00Z,29.6350,-93.6417,-2.0,24.23,11111222 
TABS,ioos:station:wmo:42051:1,2010-10-05T22:30:00Z,29.6350,-93.6417,-2.0,24.22,11111222 
TABS,ioos:station:wmo:42051:1,2010-10-05T23:00:00Z,29.6350,-93.6417,-2.0,24.2,11111222 
TABS,ioos:station:wmo:42051:1,2010-10-05T23:30:00Z,29.6350,-93.6417,-2.0,24.19,11111222 
TABS,ioos:station:wmo:42051:1,2010-10-06T00:00:00Z,29.6350,-93.6417,-2.0,24.12,11111222 
TABS,ioos:station:wmo:42051:1,2010-10-06T00:30:00Z,29.6350,-93.6417,-2.0,24.09,11111222 
TABS,ioos:station:wmo:42051:1,2010-10-06T01:00:00Z,29.6350,-93.6417,-2.0,24.05,11111222 
TABS,ioos:station:wmo:42051:1,2010-10-06T01:30:00Z,29.6350,-93.6417,-2.0,24.0,11111222 
TABS,ioos:station:wmo:42051:1,2010-10-06T02:00:00Z,29.6350,-93.6417,-2.0,23.95,11111222 
TABS,ioos:station:wmo:42051:1,2010-10-06T02:30:00Z,29.6350,-93.6417,-2.0,23.93,11111222 
TABS,ioos:station:wmo:42051:1,2010-10-06T03:00:00Z,29.6350,-93.6417,-2.0,23.91,11111222 
TABS,ioos:station:wmo:42051:1,2010-10-06T03:30:00Z,29.6350,-93.6417,-2.0,23.86,11111222 
TABS,ioos:station:wmo:42051:1,2010-10-06T04:00:00Z,29.6350,-93.6417,-2.0,23.81,11111222 
TABS,ioos:station:wmo:42051:1,2010-10-06T04:30:00Z,29.6350,-93.6417,-2.0,23.78,11111222 
TABS,ioos:station:wmo:42051:1,2010-10-06T05:00:00Z,29.6350,-93.6417,-2.0,23.75,11111222 
TABS,ioos:station:wmo:42051:1,2010-10-06T05:30:00Z,29.6350,-93.6417,-2.0,23.72,11111222 
TABS,ioos:station:wmo:42051:1,2010-10-06T06:00:00Z,29.6350,-93.6417,-2.0,23.66,11111222 
TABS,ioos:station:wmo:42051:1,2010-10-06T06:30:00Z,29.6350,-93.6417,-2.0,23.8,11111222 
TABS,ioos:station:wmo:42051:1,2010-10-06T07:00:00Z,29.6350,-93.6417,-2.0,23.54,11111222 
TABS,ioos:station:wmo:42051:1,2010-10-06T07:30:00Z,29.6350,-93.6417,-2.0,23.56,11111222 
TABS,ioos:station:wmo:42051:1,2010-10-06T08:00:00Z,29.6350,-93.6417,-2.0,23.55,11111222 
TABS,ioos:station:wmo:42051:1,2010-10-06T08:30:00Z,29.6350,-93.6417,-2.0,23.56,11111222 
TABS,ioos:station:wmo:42051:1,2010-10-06T09:00:00Z,29.6350,-93.6417,-2.0,23.55,11111222 
TABS,ioos:station:wmo:42051:1,2010-10-06T09:30:00Z,29.6350,-93.6417,-2.0,23.54,11111222 
TABS,ioos:station:wmo:42051:1,2010-10-06T10:00:00Z,29.6350,-93.6417,-2.0,23.61,11111222 
TABS,ioos:station:wmo:42051:1,2010-10-06T10:30:00Z,29.6350,-93.6417,-2.0,23.57,11111222 
TABS,ioos:station:wmo:42051:1,2010-10-06T11:00:00Z,29.6350,-93.6417,-2.0,23.57,11111222 
TABS,ioos:station:wmo:42051:1,2010-10-06T11:30:00Z,29.6350,-93.6417,-2.0,23.59,11111222 
TABS,ioos:station:wmo:42051:1,2010-10-06T12:00:00Z,29.6350,-93.6417,-2.0,23.62,11111222 
TABS,ioos:station:wmo:42051:1,2010-10-06T12:30:00Z,29.6350,-93.6417,-2.0,23.62,11111222 
TABS,ioos:station:wmo:42051:1,2010-10-06T13:00:00Z,29.6350,-93.6417,-2.0,23.63,11111222 
TABS,ioos:station:wmo:42051:1,2010-10-06T13:30:00Z,29.6350,-93.6417,-2.0,23.65,11111222 
TABS,ioos:station:wmo:42051:1,2010-10-06T14:00:00Z,29.6350,-93.6417,-2.0,23.67,11111222 
TABS,ioos:station:wmo:42051:1,2010-10-06T14:30:00Z,29.6350,-93.6417,-2.0,23.69,11111222 
TABS,ioos:station:wmo:42051:1,2010-10-06T15:00:00Z,29.6350,-93.6417,-2.0,23.7,11111222 
TABS,ioos:station:wmo:42051:1,2010-10-06T15:30:00Z,29.6350,-93.6417,-2.0,23.73,11111222 
TABS,ioos:station:wmo:42051:1,2010-10-06T16:00:00Z,29.6350,-93.6417,-2.0,23.75,11111222 
TABS,ioos:station:wmo:42051:1,2010-10-06T16:30:00Z,29.6350,-93.6417,-2.0,23.78,11111222 
TABS,ioos:station:wmo:42051:1,2010-10-06T17:00:00Z,29.6350,-93.6417,-2.0,23.85,11111222 
TABS,ioos:station:wmo:42051:1,2010-10-06T17:30:00Z,29.6350,-93.6417,-2.0,23.87,11111222 
TABS,ioos:station:wmo:42051:1,2010-10-06T18:00:00Z,29.6350,-93.6417,-2.0,23.89,11111222 
TABS,ioos:station:wmo:42051:1,2010-10-06T18:30:00Z,29.6350,-93.6417,-2.0,23.84,11111222 
TABS,ioos:station:wmo:42051:1,2010-10-06T19:00:00Z,29.6350,-93.6417,-2.0,23.83,11111222 
TABS,ioos:station:wmo:42051:1,2010-10-06T19:30:00Z,29.6350,-93.6417,-2.0,23.84,11111222 
TABS,ioos:station:wmo:42051:1,2010-10-06T20:00:00Z,29.6350,-93.6417,-2.0,23.77,11111222 
TABS,ioos:station:wmo:42051:1,2010-10-06T20:30:00Z,29.6350,-93.6417,-2.0,23.8,11111222 
TABS,ioos:station:wmo:42051:1,2010-10-06T21:00:00Z,29.6350,-93.6417,-2.0,23.8,11111222 
TABS,ioos:station:wmo:42051:1,2010-10-06T21:30:00Z,29.6350,-93.6417,-2.0,23.8,11111222 
TABS,ioos:station:wmo:42051:1,2010-10-06T22:00:00Z,29.6350,-93.6417,-2.0,23.8,11111222 
TABS,ioos:station:wmo:42051:1,2010-10-06T22:30:00Z,29.6350,-93.6417,-2.0,23.8,11111222 
TABS,ioos:station:wmo:42051:1,2010-10-06T23:00:00Z,29.6350,-93.6417,-2.0,23.0,11111222 